Regional Weather Roundup
Issued by NWS Sioux Falls, SD

Home | Current Version | Previous Version | Graphics & Text | Print | Product List | Glossary Off
Versions: 1 2 3 4 5 6 7 8 9 10 11 12 13 14 15 16 17 18 19 20 21 22 23 24 25 26 27 28 29 30 31 32 33 34 35 36 37 38 39 40 41 42 43 44 45 46 47 48 49 50

000
ASUS43 KFSD 031702
RWRFSD

WEATHER ROUNDUP FOR SE SOUTH DAKOTA/SW MINNESOTA/NW IOWA
NATIONAL WEATHER SERVICE SIOUX FALLS SD
1200 PM CDT SUN MAY 03 2015

NOTE: "FAIR" INDICATES FEW OR NO CLOUDS BELOW 12,000 FEET WITH NO
SIGNIFICANT WEATHER AND OR OBSTRUCTIONS TO VISIBILITY.


SDZ038>040-050-052>070-031800-
SOUTHEAST SOUTH DAKOTA

CITY           SKY/WX    TMP DP  RH WIND       PRES   REMARKS
BROOKINGS      PTSUNNY   73  55  53 NE16G25   29.80R
CHAMBERLAIN    NOT AVBL
HURON          SUNNY     72  40  31 N26G40    29.85R
MADISON        FAIR      75  54  46 N16G22    29.79R
MITCHELL       SUNNY     77  56  48 NE18G26   29.80R
SIOUX FALLS    PTSUNNY   77  55  46 VRB5      29.77R
WINNER         FAIR      70  36  28 NE30G40   29.86R
YANKTON        MOSUNNY   75  55  50 CALM      29.74R
$$

MNZ071-072-080-081-089-090-097-098-031800-
SOUTHWEST MINNESOTA

CITY           SKY/WX    TMP DP  RH WIND       PRES   REMARKS
FAIRMONT       SUNNY     79  48  34 SW9       29.79S
JACKSON        SUNNY     77  50  38 SW8       29.80R
LUVERNE        SUNNY     77  52  41 W7        29.78S
MARSHALL       MOSUNNY   72  52  49 N14G22    29.79R
MONTEVIDEO     SUNNY     75  55  50 NE16G25   29.79S
REDWOOD FALLS  SUNNY     77  54  44 W10G17    29.76R
TRACY          SUNNY     78  55  45 NW12      29.78R
WORTHINGTON    SUNNY     75  54  46 SW13      29.79R
$$

IAZ001>003-012>014-020>022-031-032-NEZ013-014-SDZ071-031800-
NORTHWEST IOWA

CITY           SKY/WX    TMP DP  RH WIND       PRES   REMARKS
DENISON        SUNNY     77  61  57 SW10      29.75S
ESTHERVILLE    SUNNY     75  54  47 VRB6      29.78S
SIOUX CITY     MOSUNNY   77  57  50 SE8       29.74S
SPENCER        SUNNY     78  55  44 MISG      29.78S
$$

ABBREVIATIONS USED IN REMARKS
   TC - TEMPERATURE IN CELSIUS
  WCI - WIND CHILL INDEX
   HX - HEAT INDEX
  VSB - VISIBILITY




USA.gov is the U.S. government's official web portal to all federal, state and local government web resources and services.